Wetbulb
52.88 56.69 54.83 54.15 54.78 55.62 52.52 53.48 48.50 52.22 49.41 52.12 58.33 61.27 63.73 65.57 65.74 64.46 63.68 63.46 63.60 63.43 62.75 63.21 63.13 63.46 63.42 63.39 64.30 63.87 63.41 63.27 63.28 64.12 64.77 64.90 64.81 66.32 67.55 68.62 69.75 71.69 71.93 71.56
46.86 53.42 54.74 54.20 56.32 56.65 56.06 56.11 54.79 55.55 53.21 57.62 63.15 65.85 64.92 64.21 63.84 63.02 63.32 63.17 63.17 63.26 63.85 63.18 62.80 62.07 62.76 62.61 63.26 63.62 63.32 63.63 63.65 63.39 63.29 63.57 63.82 64.41 64.70 65.10 66.32 67.93 69.23 70.10
44.49 48.43 52.49 48.22 53.53 55.73 56.17 54.63 53.40 51.88 55.55 59.86 64.09 64.24 63.82 63.62 64.15 62.80 62.86 63.00 62.59 61.99 61.78 61.49 61.37 61.64 60.18 61.19 62.31 61.94 61.16 61.34 61.18 61.18 61.14 61.74 62.58 62.69 62.75 62.97 64.04 64.72 65.65 67.79
40.86 42.04 38.34 46.07 51.76 57.55 53.55 53.85 53.57 54.53 57.16 59.84 64.30 63.72 63.51 63.34 62.07 62.45 62.92 62.52 61.95 61.08 60.65 60.40 60.64 60.63 60.97 60.94 59.73 59.11 59.02 59.46 60.00 60.23 60.59 60.92 61.18 61.22 61.50 62.10 62.46 63.01 63.27 64.89
40.76 39.11 44.22 49.76 51.27 51.88 51.49 51.41 55.80 59.26 63.00 63.63 63.29 62.97 61.56 63.54 63.37 62.50 62.17 60.92 60.26 60.94 60.24 60.19 60.56 60.27 59.38 57.66 57.38 57.58 58.10 58.50 58.12 58.18 57.96 57.66 57.92 58.21 59.62 60.67 60.78 60.80 61.66 63.11
41.79 39.21 39.80 47.19 53.39 54.29 55.58 48.17 59.38 61.26 61.84 62.32 62.32 56.72 57.76 62.71 62.93 62.51 61.04 61.24 60.97 61.29 60.98 60.52 59.51 58.55 56.28 55.36 55.74 56.58 56.64 57.40 59.22 59.43 57.18 57.09 55.42 55.21 56.53 58.27 60.29 61.06 61.58 63.59
41.18 40.32 43.99 52.33 56.89 54.88 44.88 47.14 59.64 60.44 60.28 58.48 55.60 58.06 60.22 61.95 59.84 60.00 60.01 60.77 61.17 60.85 59.83 59.46 58.75 57.00 55.06 55.08 55.24 56.54 57.20 57.46 57.94 57.51 56.83 56.08 54.48 54.76 55.31 56.78 59.08 61.03 60.53 61.79
40.05 39.98 42.27 55.75 55.37 51.06 52.49 57.75 60.19 59.45 59.34 58.78 59.49 60.52 60.27 59.56 59.03 59.39 60.02 60.58 60.82 59.77 59.10 59.25 58.29 56.60 54.43 54.95 56.08 55.94 56.26 56.22 55.60 56.61 56.42 55.24 52.66 52.49 53.17 55.92 55.88 60.43 61.28 62.01
43.49 43.84 51.65 53.07 55.92 57.05 60.73 60.72 59.77 60.01 60.59 60.94 60.13 59.73 59.96 59.18 59.03 59.24 59.47 59.90 60.35 59.41 58.33 57.89 57.45 56.24 54.18 55.27 56.24 55.88 55.03 53.76 53.40 53.56 55.13 54.04 52.29 50.90 51.49 51.73 53.83 59.03 58.79 57.75
48.38 51.70 52.92 54.97 54.90 56.28 59.98 60.75 61.73 61.70 61.40 61.29 59.67 60.15 59.22 59.44 59.10 58.21 58.41 59.30 59.44 58.78 57.24 56.12 56.62 56.22 55.33 56.10 57.30 55.33 52.68 51.76 52.03 51.44 54.51 53.28 52.63 50.97 50.03 48.24 51.72 53.89 53.49 54.25
47.00 49.58 52.22 54.76 56.82 58.85 59.67 62.63 62.63 62.71 62.71 61.53 61.10 59.31 59.10 58.70 58.53 58.21 58.34 59.21 58.47 57.39 56.00 55.92 55.80 55.32 55.85 55.66 55.92 53.16 51.29 50.79 49.97 50.18 53.45 53.34 52.95 50.79 50.88 48.98 47.09 50.59 50.47 49.60
43.83 48.84 49.82 51.75 56.23 60.33 60.31 59.96 61.90 61.91 61.63 62.21 61.62 60.23 60.35 59.60 59.40 58.77 58.05 58.47 57.43 56.80 56.46 56.20 56.20 56.09 56.31 56.21 55.45 53.11 50.58 49.51 49.11 48.53 48.57 49.17 50.26 52.08 51.88 49.04 46.87 45.36 44.88 48.39
50.86 52.55 55.28 57.23 59.30 60.59 59.31 59.70 61.74 61.88 61.86 60.82 61.36 60.94 60.18 58.88 58.48 58.29 58.21 58.58 57.71 57.62 57.15 56.95 56.35 56.02 56.50 56.45 54.60 53.40 50.27 49.27 48.58 48.73 47.90 47.18 47.39 47.00 47.01 49.72 49.19 46.53 45.21 44.10
52.10 52.44 52.08 54.52 55.53 59.65 60.87 60.43 59.28 61.40 61.65 61.70 60.55 60.87 59.34 57.57 57.23 59.12 58.44 58.80 59.22 58.60 57.97 57.50 56.58 55.39 56.30 56.04 54.16 53.06 51.75 51.09 49.05 48.49 48.33 47.45 47.43 47.45 47.59 47.34 47.16 48.75 48.96 46.71
53.39 52.99 51.71 52.49 53.17 54.61 58.66 59.04 58.69 58.54 57.93 56.84 57.32 56.92 56.86 55.85 57.01 57.36 57.23 58.90 59.81 58.64 58.20 57.41 56.46 57.24 56.54 55.93 54.20 52.96 52.20 50.61 49.69 49.26 48.49 48.67 47.37 47.30 47.16 46.94 47.30 47.23 48.49 49.14
53.72 53.74 54.43 55.49 55.56 57.12 57.51 57.71 57.08 56.67 57.33 57.54 57.36 57.80 57.28 57.90 57.22 57.21 57.96 58.84 57.32 57.28 57.66 57.41 56.88 57.52 58.53 57.57 55.94 54.90 53.86 53.44 51.43 49.31 48.90 48.24 48.15 48.27 49.95 46.85 46.59 46.64 47.32 47.72
51.97 50.76 54.17 55.17 56.34 56.65 56.28 57.92 57.72 57.56 57.88 57.36 57.41 58.13 59.16 58.90 57.17 55.76 56.17 59.04 58.37 57.96 58.18 57.66 57.40 57.37 57.58 57.90 57.49 56.33 55.96 53.92 54.02 50.26 49.69 49.78 49.02 48.77 49.16 50.56 49.19 48.20 47.46 48.74
57.10 57.30 56.46 56.72 57.01 57.10 56.64 56.76 56.58 56.45 56.41 58.22 58.87 58.28 57.97 57.30 55.16 54.55 55.38 56.69 58.71 57.63 58.22 58.13 57.86 57.41 57.95 57.32 56.90 58.34 56.18 54.61 55.52 52.71 51.91 52.41 51.51 49.81 50.05 50.59 51.06 50.86 51.30 52.30
58.71 58.27 57.66 57.41 56.83 56.71 56.84 57.03 57.46 58.17 57.97 58.23 58.05 56.57 55.42 55.31 55.98 56.44 55.53 56.98 57.61 57.04 58.30 59.12 60.05 59.66 56.89 57.50 58.77 58.69 57.14 56.98 56.65 54.01 53.44 53.48 54.92 53.10 52.48 52.21 52.20 52.00 52.48 53.47
57.50 57.98 57.93 57.73 58.36 57.20 55.95 55.69 55.03 57.50 58.32 57.30 55.66 54.11 53.79 55.11 56.46 55.60 55.70 54.96 56.70 58.07 58.81 59.16 59.40 58.29 57.24 58.70 61.52 57.64 55.40 57.41 56.06 54.85 53.28 52.40 52.98 51.15 53.41 51.69 54.52 54.11 53.35 53.76
55.90 56.08 55.89 55.72 55.70 56.09 55.76 55.73 55.56 54.52 55.59 58.06 54.18 53.63 54.34 55.80 57.89 57.91 56.68 55.62 55.35 57.99 58.89 59.15 58.33 57.36 57.72 59.64 59.56 54.15 51.07 54.00 55.94 53.32 52.19 50.18 50.71 51.56 51.85 51.52 51.61 53.00 54.29 55.24
53.61 53.96 54.59 54.81 54.31 54.10 54.53 55.29 55.53 55.66 55.87 55.37 56.20 56.63 56.70 55.98 56.84 56.29 56.27 54.00 55.43 56.51 58.04 57.68 56.92 57.65 57.50 59.23 57.48 53.51 52.97 54.59 53.79 52.42 51.02 51.11 52.60 51.22 51.89 53.58 52.32 52.38 52.21 53.72
53.77 54.27 54.07 53.36 53.06 53.46 53.58 53.79 53.48 54.24 54.36 55.28 54.99 54.26 53.68 53.95 54.36 53.06 52.94 57.16 57.82 57.14 58.26 57.72 56.66 57.42 58.26 56.12 54.84 54.65 53.57 53.67 54.00 50.98 51.22 51.90 52.03 51.49 51.93 52.29 53.64 53.23 54.03 54.66
53.33 53.29 53.13 53.97 53.85 51.93 51.02 51.64 52.35 53.03 53.19 55.09 55.99 56.21 55.68 54.77 54.53 56.38 56.82 55.58 54.31 54.69 57.10 56.92 56.88 56.95 55.84 56.19 55.78 55.07 53.53 52.00 51.60 51.91 52.51 50.64 55.00 54.45 54.80 55.35 53.87 55.63 53.73 52.91
53.33 53.84 53.83 53.11 51.56 51.54 51.14 51.93 52.79 53.26 53.46 54.03 54.81 56.10 56.37 56.46 55.13 55.19 57.00 56.86 53.65 55.22 56.20 54.49 54.81 55.56 54.45 54.65 54.90 54.06 52.08 52.07 52.41 52.77 52.86 53.23 54.23 54.36 53.09 56.03 55.84 54.02 53.33 54.33
52.61 53.06 53.92 53.89 53.23 52.78 52.60 52.50 52.00 52.84 53.36 52.87 54.20 55.54 56.16 56.36 56.72 55.86 56.64 55.76 56.44 55.26 56.38 57.72 55.66 53.66 53.12 53.95 53.55 53.36 53.01 53.12 53.47 54.28 52.85 54.00 53.98 54.90 54.90 54.65 54.48 54.97 54.32 54.37
52.84 51.46 53.98 53.74 53.40 54.63 54.38 53.49 52.24 51.06 51.25 53.59 54.10 55.29 54.83 54.25 54.54 54.81 54.24 55.78 55.72 55.24 54.69 55.09 54.81 53.62 53.51 53.85 53.60 53.47 52.77 52.42 53.03 54.95 53.12 52.63 53.04 54.57 54.18 53.42 53.67 54.04 54.08 54.44
MSLP
998.50 998.91 999.07 999.51 999.00 998.56 998.69 999.81 1000.53 999.44 999.28 998.24 997.91 999.42 1001.10 1001.81 1002.97 1003.75 1004.24 1004.50 1004.91 1005.73 1006.62 1007.48 1007.24 1007.81 1008.17 1008.53 1008.68 1008.76 1009.07 1009.29 1009.76 1009.65 1009.65 1009.29 1008.96 1008.57 1008.18 1007.76 1007.31 1006.96 1006.59 1006.17
998.84 998.65 998.73 998.75 998.13 998.40 998.27 998.54 999.04 999.60 998.83 998.26 998.77 1000.41 1001.26 1002.25 1004.07 1004.65 1005.40 1003.71 1004.88 1005.92 1006.52 1007.27 1008.31 1008.37 1008.81 1009.23 1009.39 1009.53 1009.69 1009.90 1009.78 1009.76 1009.68 1009.40 1008.95 1008.48 1008.10 1007.65 1007.22 1006.83 1006.51 1006.14
999.93 999.30 998.82 998.89 997.33 997.61 997.55 997.29 997.31 998.43 998.16 998.74 999.61 1000.88 1001.88 1002.92 1002.74 1003.94 1006.18 1005.79 1005.54 1006.26 1007.16 1008.19 1008.26 1008.50 1008.98 1009.42 1009.53 1009.78 1010.07 1010.19 1010.19 1010.22 1010.12 1009.97 1009.47 1009.08 1008.70 1008.15 1007.64 1007.25 1006.55 1005.97
999.53 999.13 998.69 997.06 996.00 996.47 997.69 997.13 996.99 997.64 998.46 998.90 999.87 1000.77 1001.70 1002.65 1002.65 1004.67 1006.22 1005.74 1006.42 1007.13 1008.02 1008.56 1008.71 1009.15 1009.36 1009.70 1010.36 1010.42 1010.55 1010.75 1010.77 1010.71 1010.64 1010.29 1009.86 1009.42 1008.80 1008.32 1007.71 1007.01 1006.40 1005.84
999.90 999.67 998.42 996.77 995.96 996.16 996.48 998.42 998.52 999.16 999.86 1000.27 1001.20 1002.12 1004.03 1004.39 1004.85 1005.46 1006.00 1006.47 1007.01 1007.61 1008.25 1009.06 1009.20 1009.39 1009.85 1010.66 1010.87 1010.69 1010.93 1011.06 1011.04 1010.88 1010.70 1010.48 1010.03 1009.38 1008.76 1008.09 1007.39 1006.71 1006.12 1005.37
1000.12 999.98 998.63 997.25 996.12 995.60 995.94 999.47 999.30 999.33 1000.23 1001.05 1001.73 1003.42 1004.62 1005.09 1005.50 1005.80 1006.24 1006.65 1007.39 1008.02 1008.74 1008.57 1009.54 1010.19 1010.83 1011.27 1011.36 1011.42 1011.28 1011.06 1010.91 1010.80 1010.93 1010.50 1010.17 1009.55 1008.82 1008.02 1007.07 1006.40 1005.62 1004.80
1000.39 999.86 998.38 996.93 996.56 995.96 997.46 1000.26 1000.01 1000.19 1000.97 1001.72 1002.38 1002.56 1003.63 1004.85 1005.61 1006.01 1006.58 1007.24 1007.77 1008.11 1008.46 1009.58 1010.43 1010.87 1011.40 1011.45 1011.56 1011.55 1011.61 1011.53 1011.33 1010.98 1010.83 1010.64 1010.33 1009.62 1008.80 1008.00 1007.02 1005.90 1005.18 1004.51
999.95 999.48 998.48 996.81 996.56 997.32 998.89 999.88 1000.26 1000.82 1001.49 1002.22 1002.53 1003.25 1004.37 1005.30 1006.02 1006.52 1007.17 1007.80 1008.11 1008.89 1009.66 1010.30 1010.79 1011.25 1011.83 1011.80 1011.70 1011.56 1011.34 1011.32 1011.27 1011.09 1010.85 1010.74 1010.53 1009.81 1008.90 1008.19 1007.12 1005.76 1004.86 1004.48
999.04 998.41 997.51 996.81 996.92 997.83 998.59 999.49 1000.53 1000.79 1001.61 1001.83 1002.86 1003.82 1004.63 1005.58 1006.18 1006.77 1007.39 1008.24 1008.78 1009.26 1010.25 1010.81 1011.09 1011.21 1011.59 1011.52 1011.48 1011.63 1011.75 1011.83 1011.79 1011.63 1011.32 1011.13 1010.74 1010.19 1009.35 1008.55 1007.53 1006.33 1005.58 1005.33
998.52 998.63 997.80 997.59 997.63 997.88 998.42 998.97 999.80 1000.29 1000.96 1001.74 1003.00 1004.20 1005.18 1006.07 1006.78 1007.42 1008.05 1008.80 1009.41 1010.18 1010.86 1011.30 1011.37 1011.45 1011.49 1011.52 1011.49 1011.75 1011.89 1012.06 1012.03 1011.97 1011.86 1011.64 1011.24 1010.82 1010.23 1009.50 1008.54 1007.57 1007.06 1006.61
998.99 998.71 998.37 998.27 997.93 998.12 998.53 999.17 1000.01 1000.84 1001.25 1002.13 1002.88 1004.16 1005.03 1006.10 1006.86 1007.47 1008.13 1009.01 1009.71 1010.38 1010.92 1011.24 1011.24 1011.20 1011.10 1011.13 1011.27 1011.79 1012.11 1012.43 1012.46 1012.33 1012.22 1012.12 1011.76 1011.44 1010.97 1010.68 1009.94 1009.13 1008.49 1007.84
999.79 998.76 998.35 998.39 998.39 998.28 998.88 999.54 999.99 1000.52 1002.13 1002.97 1003.44 1004.40 1005.50 1006.39 1006.98 1007.39 1008.20 1008.94 1009.68 1010.12 1010.51 1010.84 1010.73 1010.79 1010.83 1011.00 1011.33 1011.98 1012.49 1012.65 1012.77 1012.64 1012.58 1012.45 1012.01 1011.45 1011.16 1011.05 1010.25 1009.56 1009.26 1008.69
999.06 998.67 998.16 998.09 998.38 998.53 999.12 999.69 1000.22 1000.84 1001.65 1002.86 1003.60 1004.12 1005.27 1006.32 1006.94 1007.41 1008.08 1008.55 1009.09 1009.53 1009.83 1010.12 1010.35 1010.51 1010.67 1010.98 1011.31 1011.92 1012.47 1012.86 1012.94 1012.74 1012.67 1012.45 1012.20 1012.05 1011.76 1011.22 1010.95 1010.50 1009.73 1009.38
998.64 998.56 998.85 998.83 999.14 999.33 999.50 1000.07 1000.60 1001.18 1001.91 1002.61 1003.79 1004.93 1005.64 1006.46 1007.14 1007.53 1007.88 1008.05 1008.46 1009.15 1009.48 1009.78 1010.02 1010.17 1010.25 1010.72 1011.24 1011.67 1012.28 1012.64 1012.57 1012.45 1012.43 1012.39 1012.14 1012.07 1011.85 1011.46 1011.21 1011.05 1010.49 1009.96
999.02 998.99 999.35 999.40 999.65 1000.06 1000.32 1000.84 1001.66 1002.65 1003.37 1004.35 1005.02 1005.77 1006.17 1006.83 1007.35 1007.31 1007.56 1007.66 1008.06 1008.87 1009.24 1009.44 1009.65 1009.71 1009.93 1010.25 1010.79 1011.14 1011.69 1012.30 1012.25 1012.10 1012.05 1012.05 1012.15 1012.08 1011.71 1011.44 1011.36 1011.29 1010.91 1010.35
999.41 999.65 1000.06 1000.56 1000.92 1000.94 1000.90 1002.03 1002.79 1003.83 1004.34 1005.06 1005.61 1006.12 1006.45 1006.83 1007.20 1007.68 1007.32 1007.42 1007.93 1008.64 1008.88 1009.04 1009.03 1008.88 1009.13 1009.50 1009.98 1010.57 1010.92 1011.37 1011.77 1011.80 1012.07 1012.08 1012.04 1012.09 1011.79 1011.54 1011.42 1011.22 1010.91 1010.83
999.89 1000.46 1000.85 1001.51 1001.85 1002.23 1002.10 1002.61 1003.09 1003.90 1004.47 1004.71 1005.50 1005.61 1005.87 1006.14 1006.85 1007.52 1007.25 1006.89 1006.90 1007.40 1007.82 1008.15 1008.18 1008.26 1008.67 1008.77 1009.26 1009.84 1010.25 1010.50 1011.05 1011.49 1011.58 1011.68 1011.64 1011.73 1011.62 1011.36 1011.37 1011.23 1010.97 1010.65
1000.08 1000.63 1001.00 1001.44 1002.18 1002.72 1003.29 1003.64 1003.92 1004.05 1004.43 1004.80 1005.17 1005.29 1005.35 1005.77 1006.11 1006.24 1006.36 1006.35 1006.84 1007.26 1007.47 1007.43 1007.60 1007.91 1008.10 1008.38 1008.87 1009.11 1009.53 1009.88 1010.51 1010.84 1010.94 1011.20 1011.00 1011.04 1011.11 1011.03 1010.98 1010.95 1010.55 1010.37
1001.09 1001.62 1002.10 1002.50 1002.88 1003.17 1003.59 1003.90 1004.19 1004.27 1004.57 1004.83 1005.29 1005.38 1005.27 1005.73 1006.12 1006.27 1006.08 1006.30 1006.69 1006.83 1006.86 1006.88 1006.93 1007.34 1007.87 1008.03 1008.32 1008.73 1009.11 1009.38 1009.57 1009.85 1010.12 1010.26 1010.27 1010.39 1010.51 1010.45 1010.42 1010.38 1010.27 1009.97
1002.09 1002.53 1002.93 1003.39 1003.65 1003.90 1004.30 1004.46 1004.60 1004.86 1004.96 1005.10 1005.39 1005.71 1005.75 1005.87 1006.06 1006.06 1006.03 1006.31 1006.29 1006.16 1006.25 1006.38 1006.67 1007.14 1007.33 1007.71 1007.96 1008.45 1008.64 1008.71 1008.93 1009.05 1009.30 1009.44 1009.58 1009.59 1009.68 1009.69 1009.76 1009.64 1009.52 1009.45
1003.03 1003.32 1003.66 1004.02 1004.44 1004.66 1004.81 1004.90 1004.95 1004.97 1004.85 1004.87 1005.27 1005.53 1005.50 1005.45 1005.58 1005.59 1005.84 1006.06 1005.85 1005.80 1005.84 1005.90 1006.19 1006.61 1006.97 1007.28 1007.77 1008.19 1008.18 1008.24 1008.33 1008.44 1008.66 1008.94 1008.91 1008.91 1008.95 1009.03 1009.12 1009.05 1008.99 1008.96
1003.67 1003.92 1004.28 1004.49 1004.76 1004.91 1004.91 1004.93 1004.94 1004.90 1004.88 1004.91 1004.92 1004.96 1005.21 1005.47 1005.58 1005.34 1005.14 1005.41 1005.32 1005.47 1005.61 1005.79 1005.97 1006.24 1006.52 1007.03 1007.39 1007.58 1007.69 1007.67 1007.81 1007.90 1008.18 1008.44 1008.44 1008.43 1008.43 1008.28 1008.37 1008.28 1008.28 1008.25
1004.03 1004.22 1004.51 1004.74 1004.98 1005.12 1005.13 1005.13 1005.07 1005.03 1004.93 1004.81 1004.82 1004.89 1005.06 1005.17 1005.23 1005.36 1005.31 1004.85 1004.96 1004.99 1005.21 1005.33 1005.59 1005.92 1006.33 1006.61 1006.80 1006.97 1006.84 1006.98 1007.29 1007.61 1007.88 1008.08 1008.09 1008.08 1008.14 1008.11 1008.05 1007.91 1007.80 1007.68
1004.26 1004.33 1004.44 1004.61 1004.82 1005.03 1005.26 1005.16 1005.16 1005.05 1004.94 1004.84 1004.73 1004.64 1004.78 1004.98 1005.12 1004.86 1004.74 1004.60 1004.71 1004.82 1004.91 1005.10 1005.49 1005.59 1005.91 1006.15 1006.34 1006.55 1006.73 1006.85 1007.08 1007.28 1007.35 1007.48 1007.47 1007.36 1007.44 1007.24 1007.42 1007.15 1007.31 1007.26
1004.27 1004.42 1004.58 1004.72 1004.99 1005.14 1005.03 1005.08 1005.09 1005.03 1004.95 1004.86 1004.70 1004.57 1004.54 1004.56 1004.66 1004.61 1004.62 1004.72 1004.85 1004.86 1004.95 1005.18 1005.29 1005.66 1005.93 1005.97 1006.29 1006.63 1006.77 1006.75 1006.84 1006.89 1007.06 1006.97 1006.70 1006.55 1006.70 1006.64 1006.68 1006.53 1006.47 1006.55
1004.35 1004.55 1004.62 1004.61 1004.70 1004.80 1004.93 1005.09 1005.17 1005.05 1004.98 1004.89 1004.79 1004.64 1004.53 1004.49 1004.49 1004.57 1004.66 1004.84 1005.02 1005.20 1005.27 1005.33 1005.50 1005.88 1006.24 1006.42 1006.51 1006.50 1006.39 1006.19 1006.37 1006.34 1006.21 1006.07 1006.02 1006.05 1005.86 1005.84 1005.79 1005.74 1005.76 1005.84
1004.39 1004.52 1004.55 1004.60 1004.61 1004.70 1004.84 1005.06 1005.14 1005.18 1005.01 1004.89 1004.91 1004.84 1004.82 1004.69 1004.59 1004.65 1004.87 1005.05 1005.25 1005.45 1005.59 1005.69 1005.86 1005.99 1006.12 1006.21 1006.22 1006.06 1005.94 1005.99 1005.89 1005.55 1005.36 1005.49 1005.53 1005.32 1005.08 1004.97 1004.97 1004.90 1005.07 1005.14
Wind_Speed
5 7 8 7 7 5 2 13 5 17 9 6 6 9 12 16 16 16 14 14 14 13 10 9 10 8 7 7 7 6 7 7 6 6 7 6 7 7 7 7 7 8 9 9
2 8 9 6 12 12 20 23 18 10 7 8 15 18 22 22 16 13 10 9 14 12 12 13 7 8 7 6 6 6 7 7 7 8 9 10 11 11 11 11 10 9 9 11
6 7 9 2 10 15 20 13 12 7 10 9 22 20 18 13 16 17 11 9 11 10 8 6 7 7 7 7 7 9 8 8 8 8 8 9 9 10 10 11 11 12 12 11
5 3 5 10 7 15 6 3 9 6 5 6 17 8 10 11 24 17 13 10 9 10 8 6 6 7 9 10 7 7 6 6 6 6 7 8 9 9 9 9 10 10 12 13
5 5 5 5 5 10 9 5 4 10 11 15 18 18 7 3 1 8 7 6 8 10 9 6 8 9 11 8 6 7 7 6 5 6 6 8 10 12 11 10 10 11 11 13
3 4 9 7 3 1 10 3 3 13 13 18 10 6 4 7 6 7 8 12 12 11 9 12 10 9 9 6 6 6 5 5 6 8 6 9 13 13 12 12 11 10 12 11
3 3 6 3 6 2 9 9 3 7 11 7 5 5 9 10 7 7 11 13 10 10 12 9 7 7 7 6 6 2 4 5 5 6 9 8 10 10 10 11 12 11 11 10
3 4 4 4 5 9 8 4 8 5 6 11 15 17 15 13 9 11 14 11 11 11 9 7 7 6 5 5 3 3 5 5 6 7 5 7 9 9 11 10 10 11 7 6
8 7 5 2 9 7 13 15 7 12 13 21 19 18 16 12 10 9 10 8 8 11 8 6 6 6 5 2 4 4 5 6 5 6 5 9 8 9 8 9 8 8 6 5
7 6 5 6 3 7 11 8 11 14 19 20 18 15 14 11 8 7 7 9 9 10 8 6 5 5 4 4 5 5 5 5 5 5 6 8 6 6 7 8 7 6 7 6
5 5 5 4 6 6 5 13 13 13 16 16 18 16 13 10 9 8 8 9 9 9 7 7 7 5 4 5 7 6 5 4 5 4 4 4 4 6 5 6 5 5 6 6
4 7 6 4 6 12 16 13 15 14 11 9 14 13 12 11 9 9 9 7 8 8 9 7 7 5 2 4 7 6 4 3 2 2 3 2 3 2 5 6 10 13 13 8
2 2 4 6 5 4 10 12 12 16 17 17 14 17 13 8 7 8 7 10 11 11 9 8 7 6 5 5 7 7 6 4 2 2 2 2 2 4 4 5 7 13 11 12
5 5 7 6 4 4 6 8 10 9 11 14 11 9 10 8 6 10 9 9 10 10 10 9 8 7 7 7 7 7 6 7 4 4 3 1 1 2 1 2 3 5 7 8
6 6 4 3 4 6 5 7 9 9 11 12 10 9 8 8 6 7 6 7 9 10 10 10 8 7 6 6 9 8 7 5 4 4 4 4 1 0 1 2 3 3 4 6
6 8 9 9 8 7 4 11 16 13 13 12 11 8 6 6 3 3 6 7 8 9 10 11 10 9 10 10 10 8 7 10 7 4 4 3 2 3 2 2 1 1 2 2
7 6 6 6 6 5 7 11 15 13 13 13 10 9 8 6 2 8 6 7 7 8 11 12 12 7 6 6 6 5 5 7 9 4 4 4 4 4 4 3 2 3 3 3
10 7 7 9 10 12 12 11 12 13 13 12 11 11 11 9 10 8 6 4 6 5 7 9 8 8 7 7 7 5 5 5 6 7 6 5 6 5 5 4 4 5 5 4
13 12 8 8 6 7 6 7 7 6 7 9 8 11 8 4 2 5 3 4 6 6 7 7 11 11 8 8 7 4 4 5 5 5 5 7 7 5 6 6 6 5 5 5
13 11 10 8 7 6 3 2 3 3 4 5 4 3 4 5 6 6 4 5 6 6 5 7 7 7 8 8 5 4 5 5 5 5 4 5 5 6 6 8 7 6 5 5
11 10 9 9 7 7 6 5 5 3 5 8 9 9 9 7 7 7 5 3 6 5 7 8 7 5 4 5 6 6 5 5 4 5 5 5 5 4 5 5 5 5 4 3
6 8 7 7 6 6 6 5 6 5 5 4 5 7 8 7 7 6 4 6 5 9 4 4 4 7 5 7 5 5 6 5 5 5 4 5 4 3 5 4 5 5 5 5
6 7 5 5 4 4 2 2 2 2 3 4 3 2 4 5 4 4 3 5 5 7 5 4 7 9 12 7 5 3 4 6 5 5 5 4 4 4 3 4 4 5 5 6
4 3 2 1 3 3 3 2 2 2 2 3 3 4 3 3 3 3 4 3 4 6 5 4 8 9 6 3 3 2 2 1 5 6 5 6 5 5 5 5 5 5 4 5
3 2 1 1 2 2 2 2 3 3 3 3 4 4 3 4 4 3 3 3 6 5 3 9 12 8 2 1 2 1 2 2 4 4 4 5 6 5 3 5 5 6 5 4
1 2 3 4 3 3 1 1 1 2 2 2 2 2 2 2 1 1 3 4 4 4 3 3 3 4 3 3 4 5 5 3 3 5 6 6 5 5 6 6 6 6 5 4
1 1 1 1 2 2 3 3 2 1 2 1 0 2 3 3 4 4 4 3 3 3 4 4 4 5 5 5 5 5 4 3 5 5 5 5 5 6 6 5 5 5 5 5
Wind_Direction
195 221 156 198 207 197 94 266 205 264 212 223 120 124 108 111 120 126 126 114 105 102 97 83 94 86 75 59 46 39 28 27 360 345 333 333 335 322 315 311 305 299 298 295
265 177 190 221 193 209 214 241 225 182 163 260 102 121 128 125 108 87 52 108 115 113 122 103 112 102 89 72 54 54 50 39 25 11 354 348 344 341 336 331 324 312 299 292
212 181 155 331 202 218 240 279 152 182 210 143 131 138 143 147 138 130 158 157 128 118 95 118 104 100 87 79 62 57 42 22 11 355 344 333 327 323 317 313 311 304 301 295
189 63 197 229 215 206 134 321 79 79 98 98 145 100 96 144 138 146 168 136 131 112 118 111 93 82 79 65 55 59 44 17 360 353 341 329 319 310 307 302 297 294 294 291
138 170 266 310 273 170 132 354 33 113 98 102 112 103 60 51 47 134 138 121 112 113 104 105 93 79 71 54 43 40 36 24 0 343 339 335 331 324 311 299 296 292 287 284
96 159 202 233 265 157 105 40 339 130 128 134 137 107 212 158 147 127 113 120 116 113 112 84 68 75 79 67 57 48 22 9 354 354 339 338 334 325 313 305 292 290 289 280
147 220 289 228 282 304 84 204 201 137 156 168 154 176 132 132 112 113 117 114 108 100 88 92 99 93 80 73 60 28 12 8 351 16 4 346 331 319 312 306 300 292 285 284
102 136 239 211 17 120 186 106 125 90 110 101 116 112 124 129 123 113 116 114 103 102 106 105 106 106 125 112 127 70 30 20 8 1 360 355 339 325 326 319 309 301 281 285
164 205 258 347 123 128 143 141 147 128 138 130 130 134 139 134 128 126 127 128 123 115 110 110 112 105 99 125 103 58 37 21 16 350 2 9 349 341 337 333 330 356 8 7
89 300 125 116 78 124 138 145 149 145 145 140 136 138 136 137 136 127 126 130 123 119 125 128 142 134 144 140 146 91 54 34 19 10 7 20 2 354 356 346 342 11 10 7
52 22 43 16 132 137 103 134 128 136 142 147 143 149 145 140 139 136 124 129 137 141 144 151 154 146 140 104 106 95 69 39 27 20 13 352 32 22 13 19 19 19 30 33
223 251 154 195 194 137 128 137 141 133 129 139 136 135 136 141 151 146 147 148 147 154 152 163 152 149 168 111 133 131 104 74 55 48 19 5 340 353 21 22 49 60 35 37
177 278 76 102 126 121 135 140 138 137 145 144 150 146 150 150 167 155 151 154 160 168 160 155 157 167 195 156 145 146 146 158 145 100 74 49 2 10 4 332 10 24 47 50
68 75 33 41 105 99 120 142 139 138 143 144 137 138 142 140 142 160 169 173 161 164 163 166 168 179 196 148 160 156 171 184 166 157 143 147 102 73 14 18 18 352 358 28
82 73 136 63 80 94 123 122 121 98 85 68 66 89 99 113 137 164 173 171 162 168 170 170 174 195 191 166 170 171 166 192 186 169 180 162 157 215 81 23 41 30 341 344
116 97 66 60 56 17 108 93 105 105 101 102 93 80 90 67 43 246 193 165 139 182 187 180 183 198 186 177 174 183 180 185 193 172 174 201 213 250 221 256 348 54 322 312
100 92 85 63 72 55 106 125 127 128 125 111 126 133 125 123 247 254 226 199 196 188 186 183 193 191 204 180 175 174 175 173 186 175 191 207 204 218 246 244 239 253 261 260
94 72 94 135 135 119 112 117 126 129 133 151 163 175 172 182 198 206 212 190 204 214 198 198 190 193 192 186 194 191 177 184 184 199 198 214 223 212 230 244 241 248 264 253
89 92 87 84 81 91 120 147 159 165 162 172 175 201 185 179 203 265 214 174 204 209 229 196 200 192 194 200 196 179 176 222 210 203 194 206 224 221 227 235 244 235 241 263
85 86 89 83 77 78 91 179 142 154 189 173 172 177 192 215 229 248 242 202 209 208 217 203 200 192 197 205 157 251 214 214 208 222 220 209 216 219 214 229 238 243 240 242
98 92 85 86 88 86 78 72 84 84 235 188 177 200 207 221 218 199 185 207 248 235 212 213 194 181 163 173 208 206 217 222 206 193 196 215 224 220 225 219 235 242 257 244
98 95 90 84 81 63 43 50 45 32 47 89 191 204 203 209 209 204 208 196 233 218 210 212 183 172 172 200 216 206 216 211 212 186 188 222 248 213 240 237 221 230 211 224
100 106 108 103 110 132 99 58 14 27 357 358 31 98 163 200 191 180 230 237 207 203 197 198 167 181 193 197 188 187 219 184 179 180 202 201 222 234 244 245 249 248 233 234
103 106 107 64 107 77 40 300 296 269 242 253 249 247 203 202 262 249 242 241 218 200 198 160 176 158 143 167 111 82 48 179 175 200 211 208 224 224 220 239 228 246 236 230
138 154 129 80 99 160 252 311 340 319 293 280 275 255 235 213 183 240 196 184 163 145 142 174 157 155 161 331 289 312 291 252 229 225 227 231 238 258 255 272 231 235 231 230
113 164 183 176 172 192 242 36 6 311 313 290 301 295 301 300 252 133 139 161 153 143 159 134 141 146 169 224 250 251 253 255 248 245 229 230 232 244 242 238 235 227 234 218
192 182 224 358 351 205 169 167 121 297 6 173 187 27 66 61 72 74 132 149 163 173 154 189 202 201 211 224 236 246 265 273 270 258 213 228 241 250 251 235 232 235 225 217